GW3011 Weather Reports


Display with metric or nautical units.
time (UTC)temp
F
wind
direction
speed
MPH
gust
MPH
rain 1hr
in
rain 24hr
in
rain mn
in
humidity
%
barometer
mb
20260831011548 77 93 0.0 0.0 0.00 0.00 0.00 84 1018.2
20260831011044 77 92 0.0 0.0 0.00 0.00 0.00 83 1018.1
20260831010539 77 89 0.0 0.0 0.00 0.00 0.00 84 1018.1
20260831010036 77 97 0.0 0.0 0.00 0.00 0.00 83 1018.2
20260831005530 77 101 0.0 0.0 0.00 0.00 0.00 83 1017.8
20260831005029 77 93 0.0 0.0 0.00 0.00 0.00 83 1018.0
20260831004526 77 94 0.0 0.0 0.00 0.00 0.00 83 1017.8
20260831004021 77 84 0.0 0.0 0.00 0.00 0.00 82 1017.9
20260831003518 78 92 0.0 0.0 0.00 0.00 0.00 82 1018.0
20260831003014 78 73 0.0 0.0 0.00 0.00 0.00 82 1017.8
20260831002512 78 99 0.0 0.0 0.00 0.00 0.00 81 1017.8
20260831002007 78 116 0.0 0.0 0.00 0.00 0.00 81 1017.7
20260831001503 78 110 0.0 0.0 0.00 0.00 0.00 81 1017.7
20260831000959 78 116 0.0 0.0 0.00 0.00 0.00 80 1017.5
20260831000454 79 130 0.0 0.0 0.00 0.00 0.00 80 1017.6
20260830235952 79 72 0.0 0.0 0.00 0.00 0.00 79 1017.6
20260830235448 79 96 0.0 0.0 0.00 0.00 0.00 79 1017.4
20260830234943 80 129 0.0 0.0 0.00 0.00 0.00 78 1017.6
20260830234438 79 109 0.0 0.0 0.00 0.00 0.00 78 1017.3
20260830233934 79 104 0.0 0.0 0.00 0.00 0.00 78 1017.3
20260830233429 80 86 0.0 0.0 0.00 0.00 0.00 78 1017.4
20260830232925 79 123 0.0 0.0 0.00 0.00 0.00 78 1017.3
20260830232421 80 140 0.0 0.0 0.00 0.00 0.00 77 1017.2
20260830231917 80 140 0.0 0.0 0.00 0.00 0.00 78 1017.1
20260830231412 80 84 0.0 0.0 0.00 0.00 0.00 77 1017.3
20260830230911 80 156 0.0 0.0 0.00 0.00 0.00 77 1017.3
20260830230407 80 63 0.0 0.0 0.00 0.00 0.00 77 1017.4
20260830225906 79 136 0.0 0.0 0.00 0.00 0.00 77 1017.3
20260830225401 80 99 0.0 0.0 0.00 0.00 0.00 77 1017.2
20260830224856 80 102 0.0 0.0 0.00 0.00 0.00 77 1017.2
20260830224355 80 99 0.0 0.0 0.00 0.00 0.00 77 1017.3
20260830223852 80 120 0.0 0.0 0.00 0.00 0.00 76 1017.4
20260830223348 80 96 0.0 0.0 0.00 0.00 0.00 76 1017.2
20260830222847 80 121 0.0 0.0 0.00 0.00 0.00 77 1017.2
20260830222343 80 154 0.0 0.0 0.00 0.00 0.00 77 1017.6
20260830221838 80 110 0.0 0.0 0.00 0.00 0.00 77 1017.5
20260830221335 80 123 0.0 0.0 0.00 0.00 0.00 76 1017.4
20260830220830 80 87 0.0 0.0 0.00 0.00 0.00 76 1017.6
20260830220329 80 164 0.0 0.0 0.00 0.00 0.00 76 1017.5
20260830215827 80 116 0.0 0.0 0.00 0.00 0.00 75 1017.5
20260830215322 80 125 0.0 0.0 0.00 0.00 0.00 75 1017.5
20260830214817 80 156 0.0 0.0 0.00 0.00 0.00 75 1017.5
20260830214312 80 106 0.0 0.0 0.00 0.00 0.00 76 1017.4
20260830213812 80 128 0.0 0.0 0.00 0.00 0.00 75 1017.4
20260830213307 80 185 0.0 0.0 0.00 0.00 0.00 75 1017.4
20260830212803 80 98 0.0 0.0 0.00 0.00 0.00 74 1017.4
20260830212259 81 119 0.0 2.0 0.00 0.00 0.00 74 1017.5
20260830211757 80 127 0.0 0.0 0.00 0.00 0.00 74 1017.4
20260830211256 80 76 0.0 0.0 0.00 0.00 0.00 75 1017.4
20260830210753 80 77 0.0 0.0 0.00 0.00 0.00 75 1017.6
20260830210252 80 53 0.0 0.0 0.00 0.00 0.00 76 1017.6
20260830205749 80 112 0.0 0.0 0.00 0.00 0.00 75 1017.6
20260830205244 80 184 0.0 0.0 0.00 0.00 0.00 75 1017.7
20260830204740 80 122 0.0 0.0 0.00 0.00 0.00 74 1017.6
20260830204238 80 145 0.0 0.0 0.00 0.00 0.00 76 1017.4
20260830203735 80 175 0.0 0.0 0.00 0.00 0.00 76 1017.7
20260830203230 79 143 0.0 0.0 0.00 0.00 0.00 76 1017.8
20260830202730 79 181 0.0 0.0 0.00 0.00 0.00 76 1017.9
20260830202225 79 154 0.0 0.0 0.00 0.00 0.00 76 1017.9
20260830201724 80 169 0.0 0.0 0.00 0.00 0.00 76 1017.8
20260830201220 80 146 0.0 0.0 0.00 0.00 0.00 75 1017.9
20260830200715 80 112 1.0 2.0 0.00 0.00 0.00 75 1017.9
20260830200214 79 87 0.0 0.0 0.00 0.00 0.00 77 1018.0
20260830195710 78 125 0.0 0.0 0.00 0.00 0.00 78 1018.0
20260830195208 77 85 0.0 0.0 0.00 0.00 0.00 80 1018.1
20260830194702 76 78 0.0 0.0 0.00 0.00 0.00 84 1018.3
20260830194201 78 109 0.0 1.0 0.00 0.00 0.00 75 1018.2
20260830193656 78 101 0.0 0.0 0.00 0.00 0.00 75 1018.3
20260830193150 78 113 0.0 0.0 0.00 0.00 0.00 75 1018.3
20260830192646 78 114 0.0 0.0 0.00 0.00 0.00 75 1018.4
20260830192141 78 132 0.0 0.0 0.00 0.00 0.00 75 1018.2
20260830191637 78 107 0.0 0.0 0.00 0.00 0.00 75 1018.3
20260830191131 78 117 0.0 0.0 0.00 0.00 0.00 75 1018.6
20260830190621 78 37 1.0 3.0 0.00 0.00 0.00 75 1018.6
20260830190115 78 114 0.0 0.0 0.00 0.00 0.00 75 1018.9
20260830185608 77 67 0.0 0.0 0.00 0.00 0.00 76 1018.8
20260830185059 77 63 0.0 0.0 0.00 0.00 0.00 77 1019.1
20260830184557 77 106 0.0 0.0 0.00 0.00 0.00 77 1019.2
20260830184052 77 114 0.0 0.0 0.00 0.00 0.00 77 1019.3
20260830183547 78 92 0.0 0.0 0.00 0.00 0.00 76 1019.2
20260830183043 78 89 0.0 0.0 0.00 0.00 0.00 76 1019.3
20260830182538 78 115 0.0 2.0 0.00 0.00 0.00 74 1019.2
20260830182034 78 71 0.0 0.0 0.00 0.00 0.00 75 1019.1
20260830181531 78 130 0.0 0.0 0.00 0.00 0.00 74 1019.2
20260830181030 78 98 2.0 4.0 0.00 0.00 0.00 73 1019.3
20260830180529 78 98 0.0 0.0 0.00 0.00 0.00 74 1019.5
20260830180028 79 130 0.0 0.0 0.00 0.00 0.00 73 1019.3
20260830175527 79 125 2.0 6.0 0.00 0.00 0.00 72 1019.4
20260830175023 79 121 2.0 3.0 0.00 0.00 0.00 73 1019.3
20260830174519 79 103 0.0 2.0 0.00 0.00 0.00 72 1019.8
20260830174014 77 148 0.0 0.0 0.00 0.00 0.00 73 1019.7
20260830173509 77 74 0.0 0.0 0.00 0.00 0.00 74 1019.8
20260830173004 78 102 2.0 3.0 0.00 0.00 0.00 73 1019.8
20260830172501 78 118 5.0 8.0 0.00 0.00 0.00 73 1019.7
20260830171956 77 94 0.0 1.0 0.00 0.00 0.00 73 1020.0
20260830171451 77 77 0.0 1.0 0.00 0.00 0.00 73 1019.8
20260830170951 78 160 3.0 6.0 0.00 0.00 0.00 71 1019.9
20260830170446 78 112 3.0 6.0 0.00 0.00 0.00 71 1020.0
20260830165944 78 119 3.0 8.0 0.00 0.00 0.00 69 1020.0
20260830165441 79 46 0.0 0.0 0.00 0.00 0.00 70 1019.9
20260830164936 78 124 0.0 0.0 0.00 0.00 0.00 71 1020.0
20260830164432 77 142 0.0 0.0 0.00 0.00 0.00 71 1020.2
20260830163928 76 91 0.0 0.0 0.00 0.00 0.00 76 1020.0
20260830163425 76 138 0.0 0.0 0.00 0.00 0.00 75 1020.1
20260830162923 75 117 0.0 0.0 0.00 0.00 0.00 77 1020.2
20260830162420 75 108 0.0 0.0 0.00 0.00 0.00 78 1020.5
20260830161920 76 73 0.0 0.0 0.00 0.00 0.00 77 1020.6
20260830161419 76 90 0.0 0.0 0.00 0.00 0.00 72 1020.5
20260830160914 76 87 0.0 0.0 0.00 0.00 0.00 71 1020.6
20260830160411 77 92 0.0 0.0 0.00 0.00 0.00 69 1020.5
20260830155906 77 128 0.0 0.0 0.00 0.00 0.00 69 1020.5
20260830155402 77 96 0.0 0.0 0.00 0.00 0.00 69 1020.6
20260830154856 77 103 1.0 3.0 0.00 0.00 0.00 69 1020.5
20260830154353 78 101 1.0 2.0 0.00 0.00 0.00 67 1020.5
20260830153849 77 107 4.0 4.0 0.00 0.00 0.00 68 1020.7
20260830153344 77 110 2.0 3.0 0.00 0.00 0.00 69 1021.0
20260830152843 76 90 0.0 0.0 0.00 0.00 0.00 71 1020.9
20260830152338 75 132 1.0 3.0 0.00 0.00 0.00 71 1020.9
20260830151833 75 157 0.0 0.0 0.00 0.00 0.00 72 1021.3
20260830151332 75 125 0.0 0.0 0.00 0.00 0.00 71 1021.1
20260830150827 75 131 1.0 4.0 0.00 0.00 0.00 72 1021.1
20260830150326 75 74 0.0 0.0 0.00 0.00 0.00 71 1021.0
20260830145821 75 82 2.0 4.0 0.00 0.00 0.00 70 1021.1
20260830145316 75 66 1.0 4.0 0.00 0.00 0.00 72 1021.2
20260830144811 75 107 2.0 6.0 0.00 0.00 0.00 70 1021.4
20260830144307 75 120 1.0 3.0 0.00 0.00 0.00 68 1021.3
20260830143803 76 75 0.0 2.0 0.00 0.00 0.00 67 1021.3
20260830143303 78 98 2.0 6.0 0.00 0.00 0.00 65 1021.3
20260830142757 77 128 0.0 0.0 0.00 0.00 0.00 65 1021.0
20260830142252 77 94 0.0 0.0 0.00 0.00 0.00 64 1021.3
20260830141747 76 122 0.0 0.0 0.00 0.00 0.00 65 1021.2
20260830141242 76 110 1.0 3.0 0.00 0.00 0.00 64 1021.4
20260830140737 77 107 0.0 0.0 0.00 0.00 0.00 63 1021.3
20260830140231 76 66 0.0 0.0 0.00 0.00 0.00 62 1021.4
20260830135726 76 99 0.0 2.0 0.00 0.00 0.00 60 1021.3
20260830135222 76 59 0.0 0.0 0.00 0.00 0.00 60 1021.6
20260830134717 76 132 0.0 0.0 0.00 0.00 0.00 60 1021.6
20260830134212 74 117 0.0 1.0 0.00 0.00 0.00 62 1021.6
20260830133708 75 127 1.0 3.0 0.00 0.00 0.00 61 1021.9
20260830133204 75 117 0.0 0.0 0.00 0.00 0.00 61 1022.0
20260830132659 75 118 0.0 0.0 0.00 0.00 0.00 61 1021.9
20260830132155 75 83 1.0 2.0 0.00 0.00 0.00 60 1022.1
20260830131654 75 103 0.0 0.0 0.00 0.00 0.00 61 1021.9
20260830131148 74 135 0.0 0.0 0.00 0.00 0.00 61 1022.1
20260830130637 75 101 0.0 0.0 0.00 0.00 0.00 61 1021.9
20260830130132 74 75 0.0 0.0 0.00 0.00 0.00 62 1022.2
20260830125631 73 129 0.0 0.0 0.00 0.00 0.00 61 1022.1
20260830125126 73 90 0.0 0.0 0.00 0.00 0.00 60 1021.9
20260830124624 73 61 0.0 0.0 0.00 0.00 0.00 61 1022.0
20260830124120 74 67 0.0 0.0 0.00 0.00 0.00 60 1022.1
20260830123617 73 119 0.0 0.0 0.00 0.00 0.00 61 1022.2
20260830123112 73 98 0.0 0.0 0.00 0.00 0.00 61 1022.4
20260830122609 73 117 0.0 0.0 0.00 0.00 0.00 62 1022.2
20260830122105 73 111 0.0 0.0 0.00 0.00 0.00 63 1022.1
20260830121601 73 77 0.0 0.0 0.00 0.00 0.00 64 1022.2
20260830121100 72 123 0.0 0.0 0.00 0.00 0.00 65 1022.1
20260830120555 72 107 0.0 0.0 0.00 0.00 0.00 65 1021.9
20260830120051 71 78 0.0 0.0 0.00 0.00 0.00 67 1022.0
20260830115547 71 104 0.0 0.0 0.00 0.00 0.00 70 1022.1
20260830115043 71 124 0.0 0.0 0.00 0.00 0.00 70 1022.2
20260830114539 71 87 0.0 0.0 0.00 0.00 0.00 71 1022.0
20260830114038 70 104 0.0 0.0 0.00 0.00 0.00 74 1022.0
20260830113534 70 119 0.0 0.0 0.00 0.00 0.00 73 1022.1
20260830113029 70 108 0.0 0.0 0.00 0.00 0.00 75 1022.1
20260830112525 70 110 0.0 0.0 0.00 0.00 0.00 75 1022.0
20260830112021 70 128 0.0 0.0 0.00 0.00 0.00 75 1022.1
20260830111516 70 110 0.0 0.0 0.00 0.00 0.00 76 1021.8
20260830111013 69 98 0.0 0.0 0.00 0.00 0.00 77 1021.9
20260830110512 68 86 0.0 0.0 0.00 0.00 0.00 78 1022.0
20260830110007 69 72 0.0 0.0 0.00 0.00 0.00 78 1021.9
20260830105503 69 101 0.0 0.0 0.00 0.00 0.00 77 1021.8
20260830104959 70 107 0.0 0.0 0.00 0.00 0.00 75 1021.8
20260830104455 69 126 0.0 0.0 0.00 0.00 0.00 76 1022.0
20260830103950 69 117 0.0 0.0 0.00 0.00 0.00 76 1021.8
20260830103446 69 104 0.0 0.0 0.00 0.00 0.00 75 1021.8
20260830102944 69 101 0.0 0.0 0.00 0.00 0.00 76 1021.6
20260830102439 69 118 0.0 0.0 0.00 0.00 0.00 76 1021.8
20260830101935 69 169 0.0 0.0 0.00 0.00 0.00 77 1021.8
20260830101431 69 130 0.0 0.0 0.00 0.00 0.00 78 1021.8
20260830100930 69 144 0.0 0.0 0.00 0.00 0.00 78 1021.8
20260830100429 69 142 0.0 0.0 0.00 0.00 0.00 79 1021.9
20260830095928 69 94 0.0 0.0 0.00 0.00 0.00 80 1022.0
20260830095424 69 104 0.0 0.0 0.00 0.00 0.00 79 1021.7
20260830094920 68 132 0.0 0.0 0.00 0.00 0.00 81 1021.9
20260830094416 68 113 0.0 0.0 0.00 0.00 0.00 82 1021.9
20260830093912 69 112 0.0 0.0 0.00 0.00 0.00 80 1021.9
20260830093407 69 142 0.0 0.0 0.00 0.00 0.00 80 1022.1
20260830092902 68 136 0.0 0.0 0.00 0.00 0.00 80 1022.1
20260830092358 69 93 0.0 0.0 0.00 0.00 0.00 81 1021.8
20260830091854 68 146 0.0 0.0 0.00 0.00 0.00 82 1021.9
20260830091354 68 146 0.0 0.0 0.00 0.00 0.00 83 1021.9
20260830090853 68 164 0.0 0.0 0.00 0.00 0.00 82 1021.8
20260830090348 68 174 0.0 0.0 0.00 0.00 0.00 84 1021.9
20260830085848 68 158 0.0 0.0 0.00 0.00 0.00 81 1021.9
20260830085343 68 121 0.0 0.0 0.00 0.00 0.00 80 1021.9
20260830084839 68 122 0.0 0.0 0.00 0.00 0.00 81 1021.7
20260830084334 68 103 0.0 0.0 0.00 0.00 0.00 80 1021.8
20260830083829 69 101 0.0 0.0 0.00 0.00 0.00 78 1022.0
20260830083325 69 114 0.0 0.0 0.00 0.00 0.00 78 1022.3
20260830082825 70 127 0.0 0.0 0.00 0.00 0.00 77 1022.2
20260830082319 70 113 0.0 0.0 0.00 0.00 0.00 76 1022.1
20260830081814 69 118 0.0 0.0 0.00 0.00 0.00 76 1022.1
20260830081308 70 121 0.0 0.0 0.00 0.00 0.00 76 1022.3
20260830080803 70 98 0.0 0.0 0.00 0.00 0.00 76 1022.2
20260830080300 69 100 0.0 0.0 0.00 0.00 0.00 77 1022.3
20260830075759 68 100 0.0 0.0 0.00 0.00 0.00 78 1022.2
20260830075255 69 100 0.0 0.0 0.00 0.00 0.00 78 1022.2
20260830074749 69 94 0.0 0.0 0.00 0.00 0.00 78 1022.3
20260830074245 69 102 0.0 0.0 0.00 0.00 0.00 77 1022.4
20260830073741 69 80 0.0 0.0 0.00 0.00 0.00 77 1022.4
20260830073236 69 89 0.0 0.0 0.00 0.00 0.00 79 1022.3
20260830072731 69 101 0.0 0.0 0.00 0.00 0.00 78 1022.4
20260830072226 69 101 0.0 0.0 0.00 0.00 0.00 77 1022.2
20260830071721 69 102 0.0 0.0 0.00 0.00 0.00 79 1022.3
20260830071220 70 101 0.0 0.0 0.00 0.00 0.00 78 1022.3
20260830070714 69 119 0.0 0.0 0.00 0.00 0.00 78 1022.2
20260830070208 70 103 0.0 0.0 0.00 0.00 0.00 78 1022.3
20260830065707 69 126 0.0 0.0 0.00 0.00 0.00 78 1022.4
20260830065202 69 98 0.0 0.0 0.00 0.00 0.00 78 1022.3
20260830064701 69 97 0.0 0.0 0.00 0.00 0.00 79 1022.4
20260830064156 69 107 0.0 0.0 0.00 0.00 0.00 79 1022.2
20260830063655 68 94 0.0 0.0 0.00 0.00 0.00 81 1022.3
20260830063149 69 104 0.0 0.0 0.00 0.00 0.00 80 1022.2
20260830062643 69 97 0.0 0.0 0.00 0.00 0.00 79 1022.3
20260830062138 69 119 0.0 0.0 0.00 0.00 0.00 78 1022.3
20260830061633 70 140 0.0 0.0 0.00 0.00 0.00 77 1022.3
20260830061129 70 107 0.0 0.0 0.00 0.00 0.00 76 1022.3
20260830060626 70 87 0.0 0.0 0.00 0.00 0.00 75 1022.5
20260830060122 70 102 0.0 0.0 0.00 0.00 0.00 75 1022.4
20260830055616 70 112 0.0 0.0 0.00 0.00 0.00 75 1022.4
20260830055113 69 89 0.0 0.0 0.00 0.00 0.00 77 1022.3
20260830054607 70 88 0.0 0.0 0.00 0.00 0.00 74 1022.1
20260830054103 70 87 0.0 0.0 0.00 0.00 0.00 74 1022.2
20260830053559 70 120 0.0 0.0 0.00 0.00 0.00 74 1022.1
20260830053058 71 105 0.0 0.0 0.00 0.00 0.00 73 1022.1
20260830052554 71 139 0.0 0.0 0.00 0.00 0.00 72 1022.3
20260830052054 70 103 0.0 0.0 0.00 0.00 0.00 74 1022.5
20260830051548 70 98 0.0 0.0 0.00 0.00 0.00 73 1022.2
20260830051045 71 100 0.0 0.0 0.00 0.00 0.00 72 1022.0
20260830050538 71 124 0.0 0.0 0.00 0.00 0.00 72 1022.2
20260830050039 71 116 0.0 0.0 0.00 0.00 0.00 72 1022.2
20260830045537 71 100 0.0 0.0 0.00 0.00 0.00 71 1022.1
20260830045032 71 127 0.0 0.0 0.00 0.00 0.00 71 1022.0
20260830044527 71 99 0.0 0.0 0.00 0.00 0.00 71 1022.2
20260830044022 71 90 0.0 0.0 0.00 0.00 0.00 70 1022.3
20260830043517 71 113 0.0 0.0 0.00 0.00 0.00 70 1022.1
20260830043015 71 93 0.0 0.0 0.00 0.00 0.00 70 1021.9
20260830042513 72 107 0.0 0.0 0.00 0.00 0.00 68 1021.9
20260830042008 72 108 0.0 0.0 0.00 0.00 0.00 69 1021.9
20260830041502 72 100 0.0 0.0 0.00 0.00 0.00 70 1021.9
20260830040956 72 94 0.0 0.0 0.00 0.00 0.00 69 1021.8
20260830040453 71 110 0.0 0.0 0.00 0.00 0.00 67 1022.2
20260830035952 72 75 0.0 0.0 0.00 0.00 0.00 67 1021.9
20260830035450 72 98 0.0 0.0 0.00 0.00 0.00 67 1022.0
20260830034945 71 100 0.0 0.0 0.00 0.00 0.00 68 1022.0
20260830034436 73 87 0.0 0.0 0.00 0.00 0.00 64 1021.9
20260830033930 73 68 0.0 0.0 0.00 0.00 0.00 62 1021.8
20260830033425 72 79 0.0 0.0 0.00 0.00 0.00 65 1022.0
20260830032920 72 86 0.0 0.0 0.00 0.00 0.00 63 1022.1
20260830032419 73 90 0.0 0.0 0.00 0.00 0.00 62 1022.1
20260830031915 73 89 0.0 0.0 0.00 0.00 0.00 59 1021.9
20260830031410 73 97 0.0 0.0 0.00 0.00 0.00 61 1021.8
20260830030905 73 91 0.0 0.0 0.00 0.00 0.00 60 1021.9
20260830030401 74 90 0.0 0.0 0.00 0.00 0.00 63 1021.8
20260830025900 74 92 0.0 0.0 0.00 0.00 0.00 61 1022.0
20260830025359 73 94 0.0 0.0 0.00 0.00 0.00 62 1022.1
20260830024854 73 110 0.0 0.0 0.00 0.00 0.00 59 1021.7
20260830024349 73 60 0.0 0.0 0.00 0.00 0.00 57 1021.8
20260830023846 74 88 0.0 0.0 0.00 0.00 0.00 56 1021.9
20260830023346 74 111 0.0 0.0 0.00 0.00 0.00 58 1021.9
20260830022845 74 103 0.0 0.0 0.00 0.00 0.00 57 1021.8
20260830022340 74 97 0.0 0.0 0.00 0.00 0.00 56 1021.8
20260830021839 75 96 0.0 0.0 0.00 0.00 0.00 59 1022.1
20260830021334 75 99 0.0 0.0 0.00 0.00 0.00 57 1022.0
20260830020829 75 87 0.0 0.0 0.00 0.00 0.00 57 1022.1
20260830020323 75 93 0.0 0.0 0.00 0.00 0.00 57 1021.8
20260830015818 75 120 0.0 0.0 0.00 0.00 0.00 58 1022.0
20260830015313 75 92 0.0 0.0 0.00 0.00 0.00 55 1022.1
20260830014808 75 133 0.0 0.0 0.00 0.00 0.00 57 1022.0
20260830014304 75 65 0.0 0.0 0.00 0.00 0.00 57 1021.8
20260830013755 75 97 0.0 0.0 0.00 0.00 0.00 55 1021.7
20260830013250 75 113 0.0 0.0 0.00 0.00 0.00 58 1021.9
20260830012745 75 100 0.0 0.0 0.00 0.00 0.00 54 1021.6
20260830012241 75 110 0.0 0.0 0.00 0.00 0.00 56 1021.8
20260830011737 75 92 0.0 0.0 0.00 0.00 0.00 54 1021.5